Weather reports worldwide

Advertisment
Barcelona/Aeropuerto, Spain (8181): temperature & dewpoint: 06.12.2019 12:00:00 - 12.12.2019 12:00:00 (CET)Barcelona/Aeropuerto, Spain (8181): wind speed: 06.12.2019 12:00:00 - 12.12.2019 12:00:00 (CET)Barcelona/Aeropuerto, Spain (8181): wind direction: 06.12.2019 12:00:00 - 12.12.2019 12:00:00 (CET)Barcelona/Aeropuerto, Spain (8181): reduced air pressure: 06.12.2019 12:00:00 - 12.12.2019 12:00:00 (CET)Barcelona/Aeropuerto, Spain (8181): visibility: 06.12.2019 12:00:00 - 12.12.2019 12:00:00 (CET)
Date & Time tt [°C] td [°C] ff [km/h] ff [kn] dd ppp [hPa] vv [km]
12.12.2019 12:00:00 - - - - - - -
12.12.2019 11:00:00 10,5 4,3 11 6 NNE 1014,9 30
12.12.2019 10:00:00 10,0 3,9 11 6 NE 1015,5 30
12.12.2019 09:00:00 10,1 3,4 11 6 SE 1015,1 30
12.12.2019 08:00:00 9,8 3,3 24 13 N 1014,3 30
12.12.2019 07:00:00 9,7 2,8 16 9 NW 1014,9 30
12.12.2019 06:00:00 10,0 2,8 15 8 NNW 1014,5 30
12.12.2019 05:00:00 10,1 2,9 22 12 NNW 1015,4 30
12.12.2019 04:00:00 10,3 2,4 8 4 NNW 1016,0 30
12.12.2019 03:00:00 11,1 1,9 8 4 N 1016,4 30
12.12.2019 02:00:00 11,0 1,7 21 11 NNW 1015,9 30
12.12.2019 01:00:00 11,3 1,4 11 6 W 1016,4 30
12.12.2019 00:00:00 10,2 1,9 5 3 E 1016,9 30
11.12.2019 23:00:00 8,2 4,4 4 2 N 1017,3 30
11.12.2019 22:00:00 7,0 5,1 8 4 W 1017,4 16
11.12.2019 21:00:00 8,2 5,9 9 5 W 1017,5 20
11.12.2019 20:00:00 9,7 6,0 9 5 N 1017,1 22
11.12.2019 19:00:00 11,0 6,5 9 5 NNW 1016,9 25
11.12.2019 18:00:00 11,8 6,9 11 6 NE 1016,4 28
11.12.2019 17:00:00 11,6 6,9 16 9 NNE 1015,8 26
11.12.2019 16:00:00 13,4 4,6 15 8 NNE 1014,1 30
11.12.2019 15:00:00 14,0 5,2 15 8 N 1013,6 30
11.12.2019 14:00:00 14,4 5,5 11 6 N 1014,1 22
11.12.2019 13:00:00 15,0 7,5 16 9 W 1014,9 30
11.12.2019 12:00:00 14,8 6,4 5 3 NW 1016,3 30
11.12.2019 11:00:00 10,9 5,5 5 3 N 1017,5 20
11.12.2019 10:00:00 7,7 4,1 11 6 NNE 1018,2 15
11.12.2019 09:00:00 6,2 3,4 16 9 N 1018,5 16
11.12.2019 08:00:00 6,4 3,5 16 9 N 1019,0 16
11.12.2019 07:00:00 6,4 3,5 18 10 N 1019,1 17
11.12.2019 06:00:00 6,1 3,5 16 9 N 1019,6 15
11.12.2019 05:00:00 6,2 3,7 21 11 N 1020,3 17
11.12.2019 04:00:00 6,6 3,9 18 10 N 1020,9 16
11.12.2019 03:00:00 7,0 4,1 18 10 N 1021,7 18
11.12.2019 02:00:00 7,2 4,3 18 10 N 1022,0 16
11.12.2019 01:00:00 7,8 4,6 16 9 N 1022,6 15
11.12.2019 00:00:00 8,1 4,9 16 9 N 1022,7 16
10.12.2019 23:00:00 8,8 4,8 11 6 N 1022,7 16
10.12.2019 22:00:00 9,3 4,7 11 6 NNW 1022,8 27
10.12.2019 21:00:00 9,6 5,0 13 7 NW 1023,1 28
10.12.2019 20:00:00 10,2 4,8 11 6 NNE 1023,3 24
10.12.2019 19:00:00 10,4 5,0 11 6 N 1023,0 25
10.12.2019 18:00:00 11,6 5,2 9 5 NNE 1022,5 22
10.12.2019 17:00:00 13,0 4,9 11 6 NNE 1022,4 30
10.12.2019 16:00:00 13,4 5,2 13 7 N 1022,1 30
10.12.2019 15:00:00 13,9 4,5 18 10 N 1022,4 28
10.12.2019 14:00:00 14,4 5,4 8 4 NE 1022,8 26
10.12.2019 13:00:00 14,4 6,3 8 4 NE 1023,6 28
10.12.2019 12:00:00 13,7 5,8 8 4 NNE 1024,5 29
10.12.2019 11:00:00 11,4 4,6 9 5 N 1024,9 29
10.12.2019 10:00:00 9,6 4,0 13 7 N 1024,4 30
10.12.2019 09:00:00 6,8 3,4 18 10 N 1024,4 24
10.12.2019 08:00:00 6,4 2,8 4 2 NNW 1024,4 27
10.12.2019 07:00:00 7,0 3,1 4 2 ENE 1024,0 30
10.12.2019 06:00:00 7,8 3,5 9 5 NNW 1023,6 30
10.12.2019 05:00:00 9,5 3,5 13 7 NE 1023,2 30
10.12.2019 04:00:00 8,6 3,6 11 6 NE 1023,3 30
10.12.2019 03:00:00 8,2 3,2 8 4 NNW 1023,1 30
10.12.2019 02:00:00 8,3 2,9 11 6 NW 1022,8 30
10.12.2019 01:00:00 8,3 3,1 5 3 NW 1023,3 30
10.12.2019 00:00:00 10,5 2,8 4 2 NE 1023,5 30
09.12.2019 23:00:00 11,6 2,9 11 6 NNW 1022,9 30
09.12.2019 22:00:00 12,2 3,2 9 5 NW 1022,6 30
09.12.2019 21:00:00 13,4 3,2 8 4 S 1022,4 30
09.12.2019 20:00:00 12,6 4,5 9 5 NNW 1021,5 30
09.12.2019 19:00:00 14,1 5,1 4 2 SSE 1020,5 35
09.12.2019 18:00:00 14,4 4,9 8 4 WSW 1020,2 30
09.12.2019 17:00:00 15,9 5,4 16 9 NW 1019,7 30
09.12.2019 16:00:00 16,6 5,7 28 15 NW 1018,9 35
09.12.2019 15:00:00 16,7 5,4 29 16 NW 1018,8 30
09.12.2019 14:00:00 16,8 5,4 22 12 NW 1018,8 30
09.12.2019 13:00:00 16,2 5,5 18 10 NNW 1019,8 40
09.12.2019 12:00:00 15,2 4,7 28 15 NNW 1020,1 28
09.12.2019 11:00:00 13,8 4,7 22 12 NNE 1021,0 20
09.12.2019 10:00:00 12,9 4,1 8 4 NNW 1020,4 40
09.12.2019 09:00:00 10,5 4,8 9 5 NNE 1020,6 24
09.12.2019 08:00:00 10,4 4,2 18 10 N 1020,3 29
09.12.2019 07:00:00 9,9 6,6 22 12 N 1019,3 30
09.12.2019 06:00:00 9,8 7,0 18 10 N 1019,4 21
09.12.2019 05:00:00 9,5 6,9 24 13 N 1019,7 24
09.12.2019 04:00:00 9,5 6,6 21 11 N 1019,9 30
09.12.2019 03:00:00 9,6 6,5 22 12 N 1020,3 28
09.12.2019 02:00:00 9,9 6,4 18 10 N 1019,8 30
09.12.2019 01:00:00 10,3 6,6 18 10 N 1020,2 30
09.12.2019 00:00:00 10,0 6,6 15 8 N 1020,1 30
08.12.2019 23:00:00 9,4 6,5 16 9 N 1020,2 27
08.12.2019 22:00:00 9,7 6,6 21 11 N 1020,3 30
08.12.2019 21:00:00 10,0 6,5 15 8 N 1020,6 25
08.12.2019 20:00:00 10,1 6,6 15 8 N 1020,8 27
08.12.2019 19:00:00 10,9 7,0 15 8 N 1020,6 30
08.12.2019 18:00:00 11,3 7,2 11 6 N 1020,6 30
08.12.2019 17:00:00 13,2 7,8 11 6 N 1020,5 30
08.12.2019 16:00:00 14,7 9,1 11 6 NW 1020,5 30
08.12.2019 15:00:00 14,5 9,5 13 7 W 1020,5 22
08.12.2019 14:00:00 13,8 7,7 13 7 N 1021,2 26
08.12.2019 13:00:00 13,2 7,7 15 8 N 1021,8 30
08.12.2019 12:00:00 12,2 7,3 16 9 N 1022,6 28
08.12.2019 11:00:00 10,4 6,7 22 12 N 1023,2 25
08.12.2019 10:00:00 8,3 5,8 26 14 N 1023,3 25
08.12.2019 09:00:00 6,9 5,0 24 13 N 1023,1 19
08.12.2019 08:00:00 6,6 4,8 26 14 N 1022,8 20
08.12.2019 07:00:00 6,7 5,0 26 14 N 1022,5 15
08.12.2019 06:00:00 6,7 5,2 24 13 N 1022,4 15
08.12.2019 05:00:00 7,2 5,5 18 10 N 1022,5 13
08.12.2019 04:00:00 7,8 5,9 21 11 N 1023,0 15
08.12.2019 03:00:00 7,9 6,0 18 10 N 1023,4 12
08.12.2019 02:00:00 8,2 6,2 18 10 N 1023,5 11
08.12.2019 01:00:00 8,8 6,6 16 9 N 1023,9 15
08.12.2019 00:00:00 9,5 6,8 21 11 N 1024,0 14
07.12.2019 23:00:00 9,7 7,1 18 10 N 1023,7 12
07.12.2019 22:00:00 10,2 7,4 21 11 N 1023,5 15
07.12.2019 21:00:00 11,0 7,7 16 9 N 1023,0 15
07.12.2019 20:00:00 11,3 8,5 15 8 N 1022,9 22
07.12.2019 19:00:00 11,9 10,1 4 2 N 1022,7 25
07.12.2019 18:00:00 13,5 11,2 5 3 W 1022,3 18
07.12.2019 17:00:00 14,7 11,1 13 7 SW 1021,9 27
07.12.2019 16:00:00 15,4 10,8 13 7 WSW 1021,7 30
07.12.2019 15:00:00 15,8 10,3 13 7 SW 1021,7 25
07.12.2019 14:00:00 15,8 10,0 13 7 SW 1022,2 27
07.12.2019 13:00:00 15,8 9,0 13 7 N 1022,9 30
07.12.2019 12:00:00 14,3 8,5 18 10 N 1023,4 30
07.12.2019 11:00:00 12,8 8,2 18 10 N 1023,8 30
07.12.2019 10:00:00 11,1 7,9 15 8 N 1023,7 30
07.12.2019 09:00:00 10,0 7,4 16 9 N 1023,2 16
07.12.2019 08:00:00 9,5 7,4 18 10 N 1022,8 18
07.12.2019 07:00:00 9,1 7,7 13 7 N 1022,6 15
07.12.2019 06:00:00 8,6 7,5 5 3 NW 1022,4 14
07.12.2019 05:00:00 8,5 7,1 4 2 N 1022,8 9
07.12.2019 04:00:00 9,4 7,6 8 4 NNE 1023,1 15
07.12.2019 03:00:00 9,5 7,6 8 4 NNW 1023,1 13
07.12.2019 02:00:00 9,9 8,2 13 7 N 1023,0 13
07.12.2019 01:00:00 10,0 8,3 15 8 N 1023,1 15
07.12.2019 00:00:00 9,9 8,3 9 5 N 1023,4 12
06.12.2019 23:00:00 10,2 8,5 11 6 N 1023,4 13
06.12.2019 22:00:00 10,7 8,6 11 6 N 1023,3 20
06.12.2019 21:00:00 11,4 9,3 11 6 N 1023,2 18
06.12.2019 20:00:00 11,7 9,4 5 3 NNE 1023,0 17
06.12.2019 19:00:00 12,7 9,9 11 6 W 1022,8 20
06.12.2019 18:00:00 13,8 10,3 13 7 WSW 1022,4 26
06.12.2019 17:00:00 14,8 10,0 16 9 WSW 1022,2 26
06.12.2019 16:00:00 16,0 9,9 16 9 SW 1022,1 35
06.12.2019 15:00:00 16,3 9,3 18 10 SW 1022,1 28
06.12.2019 14:00:00 16,6 9,2 15 8 SW 1022,7 27
06.12.2019 13:00:00 16,6 9,9 9 5 WSW 1023,4 28
06.12.2019 12:00:00 14,8 10,5 11 6 N 1024,4 30

tt = temperature
td = dewpoint
ff = wind speed
dd = wind direction
ppp = reduced air pressure
vv = visibility

Next stations